TimeEDT,TemperatureF,Dew PointF,Humidity,Sea Level PressureIn,VisibilityMPH,Wind Direction,Wind SpeedMPH,Gust SpeedMPH,PrecipitationIn,Events,Conditions,WindDirDegrees,DateUTC
12:15 AM,37.4,30.2,75,29.88,10.0,Calm,Calm,-,N/A,,Overcast,0,2013-03-28 04:15:00
12:35 AM,35.6,30.2,81,29.88,10.0,WSW,3.5,-,N/A,,Overcast,250,2013-03-28 04:35:00
12:55 AM,35.6,30.2,81,29.88,10.0,WSW,3.5,-,N/A,,Overcast,240,2013-03-28 04:55:00
1:15 AM,35.6,30.2,81,29.88,10.0,SW,3.5,-,N/A,,Overcast,230,2013-03-28 05:15:00
1:35 AM,35.6,30.2,81,29.88,10.0,Calm,Calm,-,N/A,,Overcast,0,2013-03-28 05:35:00
1:55 AM,35.6,32.0,87,29.88,10.0,Calm,Calm,-,N/A,,Overcast,0,2013-03-28 05:55:00
2:35 AM,35.6,32.0,87,29.88,10.0,Calm,Calm,-,N/A,,Overcast,0,2013-03-28 06:35:00
2:55 AM,33.8,30.2,87,29.88,10.0,Calm,Calm,-,N/A,,Overcast,0,2013-03-28 06:55:00
3:15 AM,33.8,30.2,87,29.88,10.0,Calm,Calm,-,N/A,,Overcast,0,2013-03-28 07:15:00
3:35 AM,33.8,30.2,87,29.88,10.0,Calm,Calm,-,N/A,,Overcast,0,2013-03-28 07:35:00
3:55 AM,33.8,30.2,87,29.88,6.0,Calm,Calm,-,N/A,,Overcast,0,2013-03-28 07:55:00
4:15 AM,33.8,30.2,87,29.88,7.0,Calm,Calm,-,N/A,,Overcast,0,2013-03-28 08:15:00
4:55 AM,33.8,30.2,87,29.89,5.0,Calm,Calm,-,N/A,,Overcast,0,2013-03-28 08:55:00
5:15 AM,33.8,30.2,87,29.89,10.0,Calm,Calm,-,N/A,,Overcast,0,2013-03-28 09:15:00
5:35 AM,33.8,30.2,87,29.90,10.0,Calm,Calm,-,N/A,,Overcast,0,2013-03-28 09:35:00
6:15 AM,33.8,30.2,87,29.90,9.0,Calm,Calm,-,N/A,,Overcast,0,2013-03-28 10:15:00
6:35 AM,33.8,30.2,87,29.91,5.0,Calm,Calm,-,N/A,,Overcast,0,2013-03-28 10:35:00
7:15 AM,33.8,30.2,87,29.92,6.0,Calm,Calm,-,N/A,,Overcast,0,2013-03-28 11:15:00
7:35 AM,33.8,30.2,87,29.92,9.0,Calm,Calm,-,N/A,,Overcast,0,2013-03-28 11:35:00
7:55 AM,33.8,30.2,87,29.93,10.0,Calm,Calm,-,N/A,,Overcast,0,2013-03-28 11:55:00
8:15 AM,35.6,30.2,81,29.93,10.0,Calm,Calm,-,N/A,,Overcast,0,2013-03-28 12:15:00
8:35 AM,35.6,30.2,81,29.93,10.0,SW,4.6,-,N/A,,Overcast,220,2013-03-28 12:35:00
8:55 AM,37.4,30.2,75,29.93,10.0,SW,5.8,-,N/A,,Overcast,230,2013-03-28 12:55:00
9:15 AM,37.4,30.2,75,29.93,10.0,WSW,4.6,-,N/A,,Overcast,240,2013-03-28 13:15:00
9:55 AM,39.2,30.2,70,29.93,10.0,Calm,Calm,-,N/A,,Overcast,0,2013-03-28 13:55:00
10:15 AM,39.2,30.2,70,29.94,10.0,Calm,Calm,-,N/A,,Overcast,0,2013-03-28 14:15:00
10:35 AM,41.0,30.2,65,29.94,10.0,Calm,Calm,-,N/A,,Overcast,0,2013-03-28 14:35:00
11:15 AM,42.8,30.2,61,29.94,10.0,Calm,Calm,-,N/A,,Overcast,0,2013-03-28 15:15:00
11:35 AM,42.8,30.2,61,29.94,10.0,NW,5.8,-,N/A,,Overcast,310,2013-03-28 15:35:00
12:15 PM,44.6,28.4,53,29.94,10.0,Calm,Calm,-,N/A,,Overcast,0,2013-03-28 16:15:00
12:35 PM,46.4,28.4,50,29.93,10.0,NW,8.1,-,N/A,,Overcast,320,2013-03-28 16:35:00
12:55 PM,46.4,26.6,46,29.93,10.0,NW,6.9,-,N/A,,Overcast,310,2013-03-28 16:55:00
1:15 PM,44.6,28.4,53,29.93,10.0,NW,6.9,-,N/A,,Overcast,310,2013-03-28 17:15:00
1:55 PM,44.6,26.6,49,29.93,10.0,NNW,11.5,-,N/A,,Overcast,330,2013-03-28 17:55:00
2:15 PM,44.6,28.4,53,29.93,10.0,North,5.8,-,N/A,,Overcast,360,2013-03-28 18:15:00
2:55 PM,42.8,28.4,57,29.93,10.0,East,4.6,-,N/A,,Overcast,90,2013-03-28 18:55:00
3:15 PM,42.8,28.4,57,29.94,10.0,ENE,3.5,-,N/A,,Overcast,70,2013-03-28 19:15:00
3:35 PM,42.8,28.4,57,29.94,10.0,ENE,4.6,-,N/A,,Overcast,60,2013-03-28 19:35:00
3:55 PM,44.6,28.4,53,29.93,10.0,Calm,Calm,-,N/A,,Overcast,0,2013-03-28 19:55:00
4:15 PM,44.6,28.4,53,29.94,10.0,Calm,Calm,-,N/A,,Overcast,0,2013-03-28 20:15:00
4:35 PM,44.6,28.4,53,29.94,10.0,SW,3.5,-,N/A,,Overcast,230,2013-03-28 20:35:00
5:15 PM,44.6,28.4,53,29.95,10.0,NNW,9.2,-,N/A,,Overcast,330,2013-03-28 21:15:00
5:35 PM,44.6,28.4,53,29.95,10.0,WNW,4.6,-,N/A,,Overcast,290,2013-03-28 21:35:00
5:55 PM,44.6,28.4,53,29.95,10.0,WNW,8.1,-,N/A,,Overcast,300,2013-03-28 21:55:00
6:15 PM,44.6,28.4,53,29.95,10.0,WNW,4.6,-,N/A,,Overcast,300,2013-03-28 22:15:00
6:35 PM,44.6,28.4,53,29.96,10.0,WNW,4.6,-,N/A,,Overcast,290,2013-03-28 22:35:00
6:55 PM,42.8,28.4,57,29.97,10.0,West,3.5,-,N/A,,Overcast,270,2013-03-28 22:55:00
7:15 PM,42.8,28.4,57,29.97,10.0,WSW,5.8,-,N/A,,Overcast,250,2013-03-28 23:15:00
7:55 PM,42.8,28.4,57,29.98,10.0,WSW,5.8,-,N/A,,Overcast,250,2013-03-28 23:55:00
8:15 PM,41.0,28.4,61,29.98,10.0,WSW,4.6,-,N/A,,Overcast,250,2013-03-29 00:15:00
8:35 PM,42.8,28.4,57,29.99,10.0,WSW,4.6,-,N/A,,Overcast,240,2013-03-29 00:35:00
8:55 PM,39.2,28.4,65,29.99,10.0,West,3.5,-,N/A,,Mostly Cloudy,270,2013-03-29 00:55:00
9:35 PM,35.6,28.4,75,30.00,10.0,WSW,4.6,-,N/A,,Mostly Cloudy,250,2013-03-29 01:35:00
10:15 PM,33.8,26.6,75,30.00,10.0,Calm,Calm,-,N/A,,Partly Cloudy,0,2013-03-29 02:15:00
10:35 PM,35.6,28.4,75,30.00,10.0,WSW,4.6,-,N/A,,Clear,240,2013-03-29 02:35:00
10:55 PM,33.8,26.6,75,30.00,10.0,WSW,5.8,-,N/A,,Mostly Cloudy,250,2013-03-29 02:55:00
11:15 PM,33.8,28.4,81,30.00,10.0,West,3.5,-,N/A,,Overcast,260,2013-03-29 03:15:00
11:35 PM,35.6,26.6,70,30.00,10.0,Calm,Calm,-,N/A,,Overcast,0,2013-03-29 03:35:00
11:55 PM,35.6,28.4,75,30.00,10.0,Calm,Calm,-,N/A,,Overcast,0,2013-03-29 03:55:00